User: anonymous   Login
Location: Newark
(34.1333°N, 7.9667°W)
Time: 03:38:37
(UTC+00:00)
Language:

RS-44 - Orbit

View from above orbital plane
View from above orbital plane
View from above satellite
View from above satellite

Ground track
Ground track

The orbit data is extracted from the following two-line orbital elements,

1 44909U 19096E   24170.83220791  .00000006  00000-0 -26658-4 0  9995
2 44909  82.5212 103.6843 0218533  47.5510 314.3840 12.79730722209236
Epoch (UTC): 18 June 2024 19:58:22
Eccentricity: 0.0218533
inclination: 82.5212°
perigee height: 1174 km
apogee height: 1511 km
right ascension of ascending node: 103.6843°
argument of perigee: 47.5510°
revolutions per day: 12.79730722
mean anomaly at epoch: 314.3840°
orbit number at epoch: 20923

The dashed part of the orbit path shows where the satellite is in the earth's shadow,  

DLR